Location: Newark
(35.5300°N, 14.3000°E)
Time: 10:18:32
(UTC+00:00)

Vanguard 3 - Visible Passes

Search period start: 21 November 2019 00:00
Search period end: 01 December 2019 00:00
Orbit: 507 x 3263 km, 33.4° (Epoch: 20 November)

Date Brightness Start Highest point End Pass type
(mag) Time Alt. Az. Time Alt. Az. Time Alt. Az.
21 Nov 9.8 16:37:53 10° W 16:56:23 68° SSW 17:07:47 10° ESE visible
21 Nov 9.9 18:57:03 10° W 19:09:06 30° SW 19:13:50 22° S visible
22 Nov 10.0 17:38:28 10° W 17:54:44 48° SW 18:04:39 11° SE visible
22 Nov 10.6 20:00:48 10° WSW 20:05:49 13° SW 20:09:17 11° SSW visible
23 Nov 10.0 16:20:23 10° W 16:39:20 65° SSW 16:51:37 10° SE visible
23 Nov 10.4 18:39:48 10° W 18:52:10 28° SW 19:00:13 11° S visible
24 Nov 10.3 17:20:59 10° W 17:37:41 45° SW 17:48:31 10° SSE visible
24 Nov 10.8 19:44:49 10° WSW 19:48:54 12° SW 19:52:27 10° SW visible
25 Nov 10.3 16:02:57 10° W 16:22:10 62° SSW 16:35:19 10° SE visible
25 Nov 10.6 18:22:37 10° W 18:35:06 26° SW 18:43:55 10° S visible
26 Nov 10.6 17:03:34 10° W 17:20:29 42° SW 17:32:03 10° SSE visible
26 Nov 11.1 19:29:55 10° WSW 19:31:53 10° WSW 19:33:44 10° SW visible
27 Nov 10.5 15:45:36 10° W 16:04:52 59° SSW 16:18:52 10° SE visible
27 Nov 10.9 18:05:33 10° W 18:17:55 24° SW 18:27:06 10° S visible
28 Nov 10.9 16:46:15 10° W 17:03:10 39° SW 17:15:26 10° SSE visible
29 Nov 11.1 17:48:38 10° W 18:00:38 22° SW 18:10:02 10° S visible
30 Nov 11.1 16:29:03 10° W 16:45:45 36° SW 16:58:37 10° SSE visible
